Location: Clanezzo
(45.7500°N, 9.6000°E)
Time: 01:21:31
(UTC+00:00)

USA 308 - Pass Details

Date: 28 September 2021
Orbit: 566 x 573 km, 54.0° (Epoch: 23 September)

Event Time Altitude Azimuth Distance (km) Brightness Sun altitude
Rises 19:26:50 0° 303° (WNW) 2,773 7.8 -24.6°
Reaches altitude 10° 19:29:05 10° 302° (WNW) 1,874 6.6 -24.9°
Enters shadow 19:32:44 63° 290° (WNW) 637 3.2 -25.5°
